Location: Chavenne
(46.6022°N, 3.2951°E)
Time: 13:00:53
(UTC+00:00)

Cosmos 1455 - Pass Details

Date: 09 April 2020
Orbit: 498 x 523 km, 82.5° (Epoch: 26 May)

Event Time Altitude Azimuth Distance (km) Brightness Sun altitude
Exits shadow 21:31:15 36° 335° (NNW) 829 3.6 -27.5°
Drops below altitude 10° 21:33:51 10° 360° (N) 1,759 5.5 -27.7°
Sets 21:36:03 0° 5° (N) 2,656 6.5 -28.0°
